Milton, FL

1:58 AM CDT on July 29, 2016 (GMT -0500)
Whiting Field Naval Air Station (South)

Weather History for KNDZ - May, 2013

Change the Weather History Date:

Thursday, May 2, 2013

  Actual Average (KNSE) Record (KNSE)
Temperature  
Mean Temperature 70 °F -  
Max Temperature 77 °F 79 °F 89 °F (2011)
Min Temperature 64 °F 59 °F 51 °F (2005)
Cooling Degree Days 6    
Growing Degree Days 20 (Base 50)    
Moisture  
Dew Point 62 °F    
Average Humidity 77    
Maximum Humidity 88    
Minimum Humidity 64    
Precipitation  
Precipitation 0.01 in - - ()
Sea Level Pressure  
Sea Level Pressure 29.93 in    
Wind  
Wind Speed 12 mph (East)    
Max Wind Speed 17 mph    
Max Gust Speed 21 mph    
Visibility 10 miles    
Events Rain    
Averages and records for this station are not official NWS values.
T = Trace of Precipitation, MM = Missing Value Source: NWS Daily Summary

Daily Weather History Graph

Daily Weather History Graph

Search for Another Location

Airport or City:

Trip Planner

Search our weather history database for the weather conditions in past years. The results will help you decide how hot, cold, wet, or windy it might be!

Date:

Astronomy

May. 02, 2013 Rise Set
Actual Time 6:03 AM CDT 7:27 PM CDT
Civil Twilight 5:37 AM CDT 7:53 PM CDT
Nautical Twilight 5:06 AM CDT 8:23 PM CDT
Astronomical Twilight 4:35 AM CDT 8:55 PM CDT
Moon 1:19 AM CDT (5/2) 12:44 PM CDT (5/2)
Length of Visible Light 14h 15m
Length of Day
13h 24m
Waning Gibbous, 47% of the Moon is Illuminated
May 2
Waning Gibbous
May 9
New
May 17
First Quarter
May 24
Full
May 31
Last Quarter

Hourly Weather History & Observations

Time (CDT) Temp. Dew Point Humidity Pressure Visibility Wind Dir Wind Speed Gust Speed Precip Events Conditions
12:56 AM 68.0 °F 62.1 °F 81% 29.92 in 10.0 mi East 15.0 mph - N/A   Overcast
1:56 AM 68.0 °F 62.1 °F 81% 29.91 in 10.0 mi ESE 13.8 mph - N/A   Overcast
2:56 AM 68.0 °F 61.0 °F 78% 29.90 in 10.0 mi East 13.8 mph - N/A   Overcast
3:56 AM 68.0 °F 61.0 °F 78% 29.90 in 10.0 mi East 12.7 mph - N/A   Overcast
4:56 AM 69.1 °F 61.0 °F 75% 29.91 in 10.0 mi East 12.7 mph 20.7 mph N/A   Overcast
5:56 AM 66.0 °F 61.0 °F 84% 29.94 in 10.0 mi East 10.4 mph - N/A   Overcast
6:56 AM 66.0 °F 60.1 °F 81% 29.95 in 10.0 mi East 9.2 mph - N/A   Overcast
7:08 AM 66.2 °F 60.8 °F 83% 29.99 in 10.0 mi East 11.5 mph - N/A   Overcast
7:36 AM 66.2 °F 60.8 °F 83% 30.00 in 10.0 mi East 9.2 mph - N/A   Overcast
7:56 AM 66.0 °F 59.0 °F 78% 29.97 in 10.0 mi East 10.4 mph - N/A   Overcast
8:13 AM 66.2 °F 59.0 °F 78% 30.01 in 10.0 mi East 5.8 mph - N/A   Overcast
8:56 AM 64.9 °F 60.1 °F 84% 29.97 in 9.0 mi ENE 8.1 mph - N/A Rain Rain
9:56 AM 68.0 °F 61.0 °F 78% 29.97 in 10.0 mi ENE 5.8 mph - N/A   Overcast
10:56 AM 71.1 °F 62.1 °F 73% 29.97 in 10.0 mi East 12.7 mph - N/A   Overcast
11:56 AM 71.1 °F 62.1 °F 73% 29.95 in 10.0 mi East 11.5 mph - N/A   Overcast
12:56 PM 72.0 °F 62.1 °F 71% 29.94 in 10.0 mi East 12.7 mph - N/A   Overcast
1:56 PM 75.0 °F 64.0 °F 69% 29.92 in 10.0 mi ENE 17.3 mph - N/A   Overcast
2:56 PM 75.0 °F 63.0 °F 66% 29.91 in 10.0 mi East 11.5 mph 20.7 mph N/A   Mostly Cloudy
3:11 PM 75.2 °F 64.4 °F 69% 29.94 in 10.0 mi ENE 12.7 mph - N/A   Mostly Cloudy
3:30 PM 73.4 °F 64.4 °F 73% 29.94 in 10.0 mi East 12.7 mph - N/A   Overcast
3:56 PM 75.0 °F 64.0 °F 69% 29.89 in 10.0 mi ENE 8.1 mph - N/A   Overcast
4:56 PM 77.0 °F 64.0 °F 64% 29.87 in 10.0 mi ENE 11.5 mph - N/A   Mostly Cloudy
5:29 PM 75.2 °F 64.4 °F 69% 29.91 in 10.0 mi NE 8.1 mph - N/A   Mostly Cloudy
5:56 PM 75.9 °F 64.0 °F 67% 29.87 in 10.0 mi NE 13.8 mph - N/A   Mostly Cloudy
6:56 PM 71.1 °F 64.9 °F 81% 29.88 in 10.0 mi ESE 6.9 mph - 0.00 in Rain Light Rain
7:54 PM 68.0 °F 64.4 °F 88% 29.94 in 10.0 mi SE 11.5 mph - 0.01 in Rain Light Rain
7:56 PM 68.0 °F 64.0 °F 87% 29.90 in 10.0 mi SE 10.4 mph - 0.01 in Rain Light Rain
8:56 PM 66.9 °F 63.0 °F 87% 29.91 in 10.0 mi Calm Calm - 0.00 in   Partly Cloudy
9:56 PM 68.0 °F 63.0 °F 84% 29.92 in 10.0 mi ENE 12.7 mph - N/A   Overcast
10:56 PM 69.1 °F 62.1 °F 78% 29.92 in 10.0 mi East 12.7 mph - N/A   Overcast
11:56 PM 68.0 °F 62.1 °F 81% 29.91 in 10.0 mi ENE 8.1 mph - N/A   Overcast